weather.gov     
National Weather Service

Regional Weather Roundup
NWS Homepage
This page is being discontinued on March 12, 2014.
The same data is available at this site. Please update your bookmarks.
Thank you, and we apologize for the inconvenience.
Please send an email to SR-SRH.Webmaster@noaa.gov with any concerns.


Current Version
Previous Version:    01  02  03  04  05  06  07  08  09  10  11  12  13  14  15  16  17  18  19  20  21  22  23  24  25  26  27  28  29  30  
   31  32  33  34  35  36  37  38  39  40  41  42  43  44  45  46  47  48  49  50  51  52  53  
[Printable]
394
ASUS43 KOAX 260610
RWRNE

WEATHER ROUNDUP FOR NEBRASKA
NATIONAL WEATHER SERVICE OMAHA NE
1200 AM CST MON JAN 26 2015

NOTES: SATELLITE DATA IS BEING USED TO AUGMENT CLOUD COVER ABOVE
       12000 FEET.
       "FAIR" INDICATES FEW OR NO CLOUDS BELOW 12,000 FEET WITH NO
       SIGNIFICANT WEATHER AND/OR OBSTRUCTIONS TO VISIBILITY.

  * THESE STATIONS DO NOT REPORT WEATHER SUCH AS RAIN...SNOW OR FOG.

NEZ001>004-019>022-054>056-260700-
NEBRASKA PANHANDLE

CITY           SKY/WX    TMP DP  RH WIND       PRES   REMARKS
SCOTTSBLUFF    MOCLDY    33  29  85 NW3       30.13R
6HR MIN TEMP:  32; 6HR MAX TEMP:  47;

ALLIANCE       PTCLDY    36  30  79 W15       30.06S WCI  27
6HR MIN TEMP:  35; 6HR MAX TEMP:  43;

CHADRON        PTCLDY    43  31  62 W12       30.04S
6HR MIN TEMP:  34; 6HR MAX TEMP:  46;

KIMBALL        PTCLDY    42  31  64 W17       30.14R
SIDNEY         CLEAR     42  30  62 W14       30.13S
6HR MIN TEMP:  40; 6HR MAX TEMP:  46;

$$

NEZ057>060-069>072-079>082-260700-
SOUTHWEST NEBRASKA

CITY           SKY/WX    TMP DP  RH WIND       PRES   REMARKS
NORTH PLATTE   CLEAR     29  23  78 CALM      30.02S
6HR MIN TEMP:  29; 6HR MAX TEMP:  42;

IMPERIAL       CLEAR     42  30  62 W13       30.07S
6HR MIN TEMP:  38; 6HR MAX TEMP:  47;

LEXINGTON      MOCLDY    39  27  62 SW5       30.03F
MCCOOK         PTCLDY    35  26  69 SW8       30.05S WCI  29
6HR MIN TEMP:  35; 6HR MAX TEMP:  48;

OGALLALA       CLEAR     43  33  67 W15       30.06R
$$

NEZ005>010-023>029-035>040-094-260700-
NORTH CENTRAL NEBRASKA

CITY           SKY/WX    TMP DP  RH WIND       PRES   REMARKS
VALENTINE      CLEAR     34  30  85 W8        29.95S WCI  27
6HR MIN TEMP:  30; 6HR MAX TEMP:  37;

AINSWORTH      PTCLDY    35  28  76 SW6       29.95S WCI  30
BROKEN BOW     PTCLDY    32  27  81 CALM      29.99F
6HR MIN TEMP:  25; 6HR MAX TEMP:  36;

O`NEILL        CLOUDY    35  32  89 S8        29.97F WCI  28
ORD            CLOUDY    33  28  81 CALM      29.99F
6HR MIN TEMP:  25; 6HR MAX TEMP:  33;

THEDFORD       CLEAR     39  33  79 W8        29.99R WCI  33
$$

NEZ041-046>049-061>064-073>077-083>087-260700-
SOUTH CENTRAL NEBRASKA

CITY           SKY/WX    TMP DP  RH WIND       PRES   REMARKS
GRAND ISLAND   CLOUDY    32  27  81 S6        30.05S WCI  26
6HR MIN TEMP:  25; 6HR MAX TEMP:  37;

AURORA         MOCLDY    29  26  88 SW6       30.06R WCI  23
HASTINGS       CLOUDY    32  25  75 S5        30.03F WCI  27
6HR MIN TEMP:  25; 6HR MAX TEMP:  35;

HEBRON         CLEAR     22  20  91 CALM      30.09R
HOLDREGE       CLOUDY    37  27  66 SW9       30.05S WCI  30
KEARNEY *      CLOUDY    36  27  69 SW12      30.03F WCI  27
YORK           CLOUDY    28  28 100 SW6       30.06R WCI  22
$$

NEZ011>018-030>034-042>045-260700-
NORTHEAST NEBRASKA

CITY           SKY/WX    TMP DP  RH WIND       PRES   REMARKS
NORFOLK        CLOUDY    33  31  92 S8        30.00F WCI  26
6HR MIN TEMP:  28; 6HR MAX TEMP:  37;

ALBION         CLOUDY    33  29  86 CALM      30.02S
BLAIR          CLOUDY    32  30  94 SW5       30.04R FOG     WCI  27
COLUMBUS *     CLOUDY    34  27  75 CALM      30.06S
FREMONT        MOCLDY    32  31  95 CALM      30.05S
TEKAMAH        CLOUDY    30  28  92 S5        30.05R WCI  25
6HR MIN TEMP:  29; 6HR MAX TEMP:  37;

WAYNE          MOCLDY    30  28  95 SW6       30.01F WCI  24
$$

NEZ050>053-065>068-078-088>093-260700-
SOUTHEAST NEBRASKA

CITY           SKY/WX    TMP DP  RH WIND       PRES   REMARKS
LINCOLN        MOCLDY    32  28  85 CALM      30.07F
6HR MIN TEMP:  30; 6HR MAX TEMP:  38;

OMAHA EPPLEY   CLEAR     29  27  92 S7        30.06S WCI  22
6HR MIN TEMP:  29; 6HR MAX TEMP:  38;

BEATRICE       CLOUDY    28  27  94 CALM      30.08R
FALLS CITY     PTCLDY    31  27  85 S7        30.08F WCI  24
6HR MIN TEMP:  30; 6HR MAX TEMP:  38;

NEBRASKA CITY  CLEAR     28  25  87 S6        30.07S WCI  22
PLATTSMOUTH    CLEAR     29  26  90 S7        30.06S WCI  22
$$

NEZ044-045-051>053-067-260700-
OMAHA AREA

CITY           SKY/WX    TMP DP  RH WIND       PRES   REMARKS
OMAHA EPPLEY   CLEAR     29  27  92 S7        30.06S WCI  22
6HR MIN TEMP:  29; 6HR MAX TEMP:  38;

BLAIR          CLOUDY    32  30  94 SW5       30.04R FOG     WCI  27
FREMONT        MOCLDY    32  31  95 CALM      30.05S
MILLARD        CLOUDY    30  29  94 CALM      30.06S FOG
OFFUTT AFB     CLEAR     26  25  93 CALM      30.06S
PLATTSMOUTH    CLEAR     29  26  90 S7        30.06S WCI  22
WAHOO          MOCLDY    31  28  88 CALM      30.06R
$$




U.S. Dept. of Commerce
NOAA National Weather Service
1325 East West Highway
Silver Spring, MD 20910
E-mail: w-nws.webmaster@noaa.gov
Page last modified: May 16, 2007
NATIONAL WEATHER SERVICE: for Safety, for Work, for Fun - FOR LIFE